Tracking 28790 objects as of 19-Apr-2024
HD Live streaming from Space Station
objects crossing your sky now

STARLINK-2632

Track STARLINK-2632 now!
10-day predictions
STARLINK-2632 is classified as:


NORAD ID: 48448
Int'l Code: 2021-040W
Perigee: 366.3 km
Apogee: 367.2 km
Inclination: 53.1 °
Period: 91.7 minutes
Semi major axis: 6737 km
RCS: Unknown
Launch date: May 9, 2021
Source: United States (US)
Launch site: AIR FORCE EASTERN TEST RANGE (AFETR)
Your satellite tracking list
Your tracking list is empty




NASA's NSSDC Master Catalog

Two Line Element Set (TLE):
1 48448U 21040W   24110.25001157 -.00050217  00000-0 -41138-3 0  9991
2 48448  53.0530  21.0628 0000673  97.0799 117.5918 15.69752376164196
Source of the keplerian elements: AFSPC